TimeEST,TemperatureF,Dew PointF,Humidity,Sea Level PressureIn,VisibilityMPH,Wind Direction,Wind SpeedMPH,Gust SpeedMPH,PrecipitationIn,Events,Conditions,WindDirDegrees,DateUTC
12:13 AM,15.8,12.2,86,30.14,5.0,West,3.5,-,N/A,,Overcast,280,2013-01-02 05:13:00
12:33 AM,14.0,10.4,86,30.14,5.0,West,3.5,-,N/A,,Scattered Clouds,270,2013-01-02 05:33:00
12:53 AM,15.1,9.0,77,30.17,4.0,Calm,Calm,-,N/A,,Haze,0,2013-01-02 05:53:00
1:53 AM,12.9,9.0,84,30.16,4.0,WSW,4.6,-,N/A,,Clear,240,2013-01-02 06:53:00
2:53 AM,10.9,8.1,88,30.19,5.0,West,5.8,-,N/A,,Clear,260,2013-01-02 07:53:00
3:53 AM,10.9,7.0,84,30.20,5.0,WSW,3.5,-,N/A,,Clear,250,2013-01-02 08:53:00
4:53 AM,10.0,6.1,84,30.21,5.0,West,3.5,-,N/A,,Clear,260,2013-01-02 09:53:00
5:53 AM,9.0,5.0,84,30.21,6.0,West,3.5,-,N/A,,Clear,260,2013-01-02 10:53:00
6:53 AM,6.1,1.0,80,30.20,6.0,Calm,Calm,-,N/A,,Haze,0,2013-01-02 11:53:00
7:53 AM,7.0,1.9,80,30.22,7.0,Calm,Calm,-,N/A,,Clear,0,2013-01-02 12:53:00
8:53 AM,7.0,3.9,87,30.24,6.0,SW,3.5,-,N/A,,Clear,220,2013-01-02 13:53:00
10:53 AM,10.9,5.0,77,30.28,10.0,West,4.6,-,N/A,,Clear,260,2013-01-02 15:53:00
11:53 AM,15.1,7.0,70,30.27,10.0,Calm,Calm,-,N/A,,Clear,0,2013-01-02 16:53:00
12:53 PM,16.0,3.9,59,30.25,10.0,WSW,5.8,-,N/A,,Clear,250,2013-01-02 17:53:00
1:53 PM,16.0,3.9,59,30.22,10.0,Calm,Calm,-,N/A,,Clear,0,2013-01-02 18:53:00
2:53 PM,16.0,3.0,57,30.22,10.0,West,4.6,-,N/A,,Clear,260,2013-01-02 19:53:00
3:53 PM,17.1,-0.9,45,30.22,10.0,Calm,Calm,-,N/A,,Clear,0,2013-01-02 20:53:00
4:53 PM,18.0,3.9,54,30.23,10.0,Calm,Calm,-,N/A,,Clear,0,2013-01-02 21:53:00
5:53 PM,17.1,3.9,56,30.24,10.0,SSW,4.6,-,N/A,,Clear,210,2013-01-02 22:53:00
6:53 PM,17.1,3.9,56,30.27,10.0,Calm,Calm,-,N/A,,Clear,0,2013-01-02 23:53:00
7:53 PM,15.1,3.9,61,30.25,10.0,South,4.6,-,N/A,,Clear,180,2013-01-03 00:53:00
8:53 PM,16.0,3.9,59,30.25,10.0,South,3.5,-,N/A,,Clear,180,2013-01-03 01:53:00
9:53 PM,15.1,3.0,59,30.25,10.0,South,6.9,-,N/A,,Clear,190,2013-01-03 02:53:00
10:53 PM,14.0,1.9,59,30.24,10.0,South,5.8,-,N/A,,Clear,190,2013-01-03 03:53:00